sat.trackr.live / text

‹ back to catalog

STARLINK-32693

NORAD 62437 · 2024-251F

PAYLOAD ACTIVE UNKNOWN

§ Identity

Operator
Country
US
Launch date
2024-12-29
Launch site
AFWTR
Launch vehicle
Mass (kg)
RCS (m²)

Purposes: comms

External: N2YO · Heavens-Above · Gunter

§ Orbital elements

Epoch: 2026-09-21T20:40:21.343296Z

Period
93.85 min
Inclination
53.1580°
Eccentricity
0.0001244
Mean motion
15.34416097 rev/d
Perigee alt
461.8 km
Apogee alt
463.5 km
Semi-major
6,840.8 km
B*
3.6375e-4
RAAN
139.0321°
Arg perigee
114.2058°
Mean anomaly
245.9075°
Rev number
9,805

§ Raw data

STARLINK-326931 62437U 24251F   26264.86135814  .00011939  00000+0  36375-3 0  99912 62437  53.1580 139.0321 0001244 114.2058 245.9075 15.34416097 98051

JSON: /api/v1/satellites/62437 · /tle

For live sub-satellite position, see the globe view (requires WebGL).

§ Visibility from observer

Set your observer location to see the next 7 days of passes ≥ 10°. The values pass through the URL so the page stays shareable.

No JS? Fill the form by hand. The geolocation button needs JavaScript.